DateTime,F1_A11,F1_S11,BsB_S11,BsG_S11,BsR_S11,BbsB_S11,BbsG_S11,BbsR_S11,BaB_A11,BaG_A11,BaR_A11,T_S11,U_S11,P_S11,T1_A11
2016-12-28T00:00:00Z,0000380,21000600,,,,,,,,,,12.2,00.8,0618.0,33.0
2016-12-28T00:01:00Z,0000380,21000600,,,,,,,,,,12.2,00.8,0618.0,33.0
2016-12-28T00:02:00Z,0000380,21000600,,,,,,,,,,12.2,00.8,0618.0,33.0
2016-12-28T00:03:00Z,0000380,61000600,,,,,,,,,,12.2,00.8,0618.0,33.0
2016-12-28T00:04:00Z,0000380,41000600,0000.23,0000.48,0000.33,0000.06,-000.36,0000.12,0000.22,-000.05,-000.06,12.2,00.8,0618.9,32.9
2016-12-28T00:05:00Z,0000380,01000600,-000.55,0000.14,0000.28,-000.34,-000.24,0000.13,0000.04,0000.06,0000.15,12.3,00.8,0618.8,32.9
2016-12-28T00:06:00Z,0000380,01000600,-000.59,0000.51,-000.01,0000.07,-000.07,-000.11,-000.07,0000.18,-000.07,12.3,00.7,0618.9,32.9
2016-12-28T00:07:00Z,0000380,01000600,-000.41,0000.31,0000.24,0000.07,-000.05,0000.06,0000.23,0000.01,-000.10,12.2,00.9,0619.0,32.9
2016-12-28T00:08:00Z,0000380,01000600,-000.14,0000.50,0000.70,0000.17,0000.29,0000.08,0000.03,-000.09,0000.26,12.2,00.8,0619.1,32.9
2016-12-28T00:09:00Z,0000380,01000600,0001.36,0000.34,0000.28,-000.27,0000.41,-000.25,0000.04,-000.03,0000.24,12.2,00.8,0619.0,32.9
2016-12-28T00:10:00Z,0000380,01000600,0001.15,0000.61,0000.43,-000.25,0000.43,0000.06,-000.04,0000.15,-000.38,12.2,00.8,0619.1,32.9
2016-12-28T00:11:00Z,0000380,01000600,-001.17,0000.10,0000.31,0000.20,-000.34,0000.03,0000.04,-000.00,0000.22,12.2,00.9,0619.2,32.9
2016-12-28T00:12:00Z,0000380,01000600,-000.74,0000.58,0000.42,0000.37,0000.75,0000.08,-000.03,-000.13,-000.23,12.2,00.8,0619.0,32.9
2016-12-28T00:13:00Z,0000380,01000600,0001.00,-000.24,0000.56,0000.01,0000.17,0000.06,0000.06,0000.31,0000.14,12.2,00.8,0619.0,32.9
2016-12-28T00:14:00Z,0000380,01000600,0000.59,-000.05,0000.09,0000.48,0000.05,-000.25,-000.06,-000.12,-000.14,12.2,00.8,0619.0,32.8
2016-12-28T00:15:00Z,0000380,01000600,-000.72,0000.08,0000.34,-000.08,0000.04,-000.00,0000.07,0000.04,-000.06,12.2,00.8,0619.0,32.8
2016-12-28T00:16:00Z,0000380,01000600,-000.30,0000.29,0000.54,-000.17,0000.14,-000.01,0000.19,0000.11,0000.25,12.2,00.8,0618.8,32.8
2016-12-28T00:17:00Z,0000380,01000600,-001.09,-000.01,0000.58,-000.04,0000.04,-000.40,0000.05,0000.01,-000.08,12.2,00.8,0619.1,32.8
2016-12-28T00:18:00Z,0000380,01000600,-000.06,-000.36,0000.21,0000.17,0000.50,0000.21,0000.10,-000.20,-000.03,12.2,00.8,0619.1,32.8
2016-12-28T00:19:00Z,0000380,01000600,0000.05,0000.45,0000.54,0000.52,-000.01,0000.18,-000.18,0000.09,-000.00,12.2,00.8,0619.0,32.8
2016-12-28T00:20:00Z,0000380,01000600,0000.25,0000.37,0000.68,0000.08,0000.13,0000.06,0000.17,0000.01,0000.30,12.2,00.8,0618.9,32.8
2016-12-28T00:21:00Z,0000380,01000600,0000.29,-000.10,0000.58,0000.06,0000.23,0000.05,0000.02,0000.17,-000.16,12.2,00.8,0619.0,32.8
2016-12-28T00:22:00Z,0000380,01000600,-000.35,0000.49,0000.24,-000.00,0000.18,-000.06,-000.07,0000.03,0000.30,12.2,00.8,0618.9,32.8
2016-12-28T00:23:00Z,0000380,01000600,0000.97,0000.11,0000.48,-000.83,0000.36,-000.14,0000.18,-000.09,-000.06,12.2,00.8,0619.1,32.8
2016-12-28T00:24:00Z,0000380,01000600,0000.16,0000.35,0000.54,-000.17,0000.09,0000.05,-000.13,-000.07,-000.19,12.1,00.8,0619.0,32.8
2016-12-28T00:25:00Z,0000380,01000600,-000.53,-000.07,0000.23,0000.08,0000.59,0000.30,0000.08,0000.11,0000.06,12.1,00.7,0619.1,32.8
2016-12-28T00:26:00Z,0000380,01000600,-000.15,0000.08,0000.26,-000.52,-000.10,-000.18,0000.01,-000.03,-000.08,12.1,00.8,0619.1,32.8
2016-12-28T00:27:00Z,0000380,01000600,-000.44,0000.34,0000.69,0000.20,0000.23,0000.19,0000.01,-000.04,0000.03,12.1,00.8,0619.0,32.8
2016-12-28T00:28:00Z,0000380,01000600,0000.86,0000.54,0000.80,-000.15,0000.33,0000.54,-000.09,0000.13,0000.05,12.1,00.8,0619.0,32.8
2016-12-28T00:29:00Z,0000380,01000600,-000.49,0000.60,0000.60,0000.67,0000.35,0000.12,0000.24,0000.11,0000.03,12.1,00.8,0619.0,32.8
2016-12-28T00:30:00Z,0000380,01000600,0000.32,0000.38,0000.42,-000.29,-000.02,0000.22,0000.09,-000.02,-000.14,12.1,00.8,0618.9,32.8
2016-12-28T00:31:00Z,0000380,01000600,-000.31,0000.86,0000.30,-000.16,0000.21,-000.09,-000.12,-000.10,-000.17,12.1,00.8,0619.2,32.8
2016-12-28T00:32:00Z,0000380,01000600,0000.25,-000.40,0000.69,0000.16,0000.34,0000.23,-000.19,0000.24,0000.27,12.1,00.8,0619.1,32.8
2016-12-28T00:33:00Z,0000380,01000600,-000.73,0000.82,0000.34,0000.32,0000.30,-000.04,0000.25,-000.26,0000.22,12.1,00.7,0619.2,32.8
2016-12-28T00:34:00Z,0000380,01000600,0000.26,0000.64,0000.08,-000.29,-000.12,-000.20,-000.12,0000.17,-000.07,12.1,00.8,0619.2,32.8
2016-12-28T00:35:00Z,0000380,01000600,0000.78,0000.37,0000.47,-000.62,0000.15,-000.21,0000.03,-000.07,-000.08,12.1,00.9,0619.1,32.8
2016-12-28T00:36:00Z,0000380,01000600,0000.22,0000.67,0000.27,0000.61,0000.04,0000.12,0000.09,0000.12,0000.04,12.1,00.9,0619.2,32.8
2016-12-28T00:37:00Z,0000380,01000600,0000.06,-000.14,0000.13,-000.25,0000.26,0000.05,0000.01,-000.02,0000.10,12.1,00.8,0619.2,32.8
2016-12-28T00:38:00Z,0000380,01000600,0000.12,0000.55,0000.37,0000.33,0000.28,0000.19,0000.05,0000.01,-000.14,12.1,00.8,0619.1,32.8
2016-12-28T00:39:00Z,0000380,01000600,-001.04,0000.01,0000.32,0000.04,-000.18,0000.32,-000.06,0000.10,0000.01,12.1,00.8,0619.1,32.7
2016-12-28T00:40:00Z,0000380,01000600,-000.62,0000.53,0000.16,-000.30,0000.53,-000.08,0000.33,-000.09,0000.13,12.1,00.8,0619.0,32.7
2016-12-28T00:41:00Z,0000380,01000600,0000.38,0000.63,-000.02,-000.60,-000.23,-000.02,-000.12,0000.05,-000.20,12.1,00.8,0619.1,32.7
2016-12-28T00:42:00Z,0000380,01000600,0000.24,-000.02,0000.14,-000.06,0000.49,-000.03,0000.02,-000.05,0000.06,12.1,00.8,0619.2,32.7
2016-12-28T00:43:00Z,0000380,01000600,-000.60,0000.08,0000.55,0000.33,0000.38,0000.36,0000.09,0000.12,0000.03,12.1,00.8,0619.0,32.7
2016-12-28T00:44:00Z,0000380,01000600,0000.00,0000.49,0000.77,-000.38,0000.14,0000.07,-000.07,0000.05,0000.20,12.1,00.9,0618.9,32.7
2016-12-28T00:45:00Z,0000380,01000600,0000.30,0000.53,0000.27,-000.32,0000.02,0000.07,-000.04,-000.09,-000.06,12.1,00.9,0619.2,32.7
2016-12-28T00:46:00Z,0000380,01000600,-000.68,0000.48,0000.45,0000.34,0000.21,0000.00,0000.31,0000.06,-000.12,12.1,00.9,0619.1,32.7
2016-12-28T00:47:00Z,0000380,01000600,0001.26,0000.34,0000.26,0000.14,-000.31,-000.20,-000.43,0000.00,-000.11,12.0,00.9,0619.1,32.7
2016-12-28T00:48:00Z,0000380,01000600,0000.42,0000.62,0000.37,-000.57,0000.43,0000.09,0000.35,0000.01,0000.59,12.0,00.9,0619.1,32.7
2016-12-28T00:49:00Z,0000380,01000600,0000.36,0000.18,0000.55,-000.05,0000.48,0000.11,0000.10,-000.09,-000.27,12.0,00.9,0619.1,32.7
2016-12-28T00:50:00Z,0000380,01000600,-000.15,0000.46,0000.02,-000.17,0000.11,-000.20,0000.02,0000.06,-000.07,12.0,00.9,0619.1,32.7
2016-12-28T00:51:00Z,0000380,01000600,-000.25,0000.75,0000.41,0000.13,0000.04,-000.15,-000.10,-000.05,-000.18,12.0,00.8,0619.2,32.7
2016-12-28T00:52:00Z,0000380,01000600,-000.28,0000.32,0000.17,-000.36,0000.16,-000.08,0000.19,0000.08,0000.09,12.0,00.9,0619.2,32.7
2016-12-28T00:53:00Z,0000380,01000600,-000.05,0000.11,0000.30,0000.11,0000.54,-000.28,-000.03,0000.09,0000.18,12.0,01.0,0619.0,32.7
2016-12-28T00:54:00Z,0000380,01000600,-000.67,0000.23,0000.30,0000.55,0000.04,-000.05,-000.01,0000.05,0000.12,12.0,00.9,0619.2,32.7
2016-12-28T00:55:00Z,0000380,01000600,0000.93,-000.06,0000.42,0000.40,0000.19,0000.12,-000.06,-000.08,-000.13,12.0,00.9,0619.1,32.7
2016-12-28T00:56:00Z,0000380,01000600,-000.43,0000.40,0000.34,-000.52,0000.10,-000.08,0000.06,0000.09,-000.01,12.0,00.9,0619.1,32.7
2016-12-28T00:57:00Z,0000380,40000600,,,,,,,,,,12.0,01.3,0619.1,32.7
2016-12-28T00:58:00Z,0000380,61000600,,,,,,,,,,11.9,00.8,0618.3,32.7
2016-12-28T00:59:00Z,0000380,21000600,,,,,,,,,,12.0,00.8,0618.2,32.7
2016-12-28T01:00:00Z,0000380,21000600,,,,,,,,,,12.0,00.8,0618.1,32.7
2016-12-28T01:01:00Z,0000380,21000600,,,,,,,,,,12.0,00.8,0618.1,32.7
2016-12-28T01:02:00Z,0000380,21000600,,,,,,,,,,12.0,00.8,0618.1,32.7
2016-12-28T01:03:00Z,0000380,61000600,,,,,,,,,,12.0,00.8,0618.1,32.7
2016-12-28T01:04:00Z,0000380,41000600,0000.04,0000.16,0000.59,-000.59,0000.25,-000.11,0000.11,0000.03,0000.26,12.0,01.0,0619.1,32.7
2016-12-28T01:05:00Z,0000380,01000600,0000.21,0000.65,0000.56,-000.12,0000.14,0000.39,-000.25,-000.15,0000.02,12.0,01.0,0619.1,32.7
2016-12-28T01:06:00Z,0000380,01000600,0000.56,0000.06,0000.50,0000.26,0000.24,-000.21,0000.08,0000.12,-000.10,12.1,01.0,0619.2,32.7
2016-12-28T01:07:00Z,0000380,01000600,-000.41,-000.01,0000.18,-000.41,0000.13,0000.03,-000.13,-000.11,-000.29,12.0,01.0,0619.3,32.7
2016-12-28T01:08:00Z,0000380,01000600,0000.55,0000.10,0000.48,-000.14,0000.07,0000.41,-000.00,0000.08,-000.00,12.0,01.0,0619.3,32.8
2016-12-28T01:09:00Z,0000380,01000600,0000.03,-000.07,0000.22,0000.02,0000.29,0000.11,0000.05,-000.02,0000.10,12.0,00.9,0619.3,32.8
2016-12-28T01:10:00Z,0000380,01000600,0000.25,-000.15,0000.75,0000.08,0000.26,-000.19,-000.21,-000.01,0000.10,12.0,01.0,0619.4,32.8
2016-12-28T01:11:00Z,0000380,01000600,0000.27,0000.11,0000.60,-000.12,0000.19,0000.27,0000.22,-000.05,0000.20,12.1,01.0,0619.3,32.8
2016-12-28T01:12:00Z,0000380,01000600,0000.63,0000.24,0000.70,0000.34,-000.12,-000.05,-000.18,0000.10,-000.35,12.1,01.0,0619.5,32.8
2016-12-28T01:13:00Z,0000380,01000600,0000.38,0000.74,0000.77,-000.14,0000.32,-000.23,0000.15,-000.01,0000.06,12.1,01.0,0619.4,32.8
2016-12-28T01:14:00Z,0000380,01000600,-000.40,0000.37,0000.39,-000.34,0000.18,-000.05,-000.11,-000.12,0000.09,12.1,00.9,0619.3,32.8
2016-12-28T01:15:00Z,0000380,01000600,0000.73,0000.49,0000.36,-000.03,-000.02,0000.05,-000.08,0000.02,-000.08,12.1,01.0,0619.6,32.9
2016-12-28T01:16:00Z,0000380,01000600,0001.32,-000.07,0000.50,0000.72,0000.11,-000.00,-000.11,0000.00,-000.03,12.2,00.9,0619.5,32.9
2016-12-28T01:17:00Z,0000380,01000600,0000.37,0000.59,0000.20,0000.15,-000.09,-000.10,-000.08,-000.02,0000.18,12.2,00.9,0619.4,32.9
2016-12-28T01:18:00Z,0000380,01000600,0001.09,0001.01,0000.45,-000.53,-000.14,-000.04,-000.08,-000.10,-000.30,12.2,00.9,0619.2,33.0
2016-12-28T01:19:00Z,0000380,01000600,-000.71,0000.88,0000.34,-000.59,0000.49,0000.08,0000.06,0000.12,0000.04,12.2,01.0,0619.3,33.0
2016-12-28T01:20:00Z,0000380,01000600,0000.08,0000.06,0000.13,-000.03,0000.43,-000.20,-000.13,-000.04,-000.11,12.2,00.9,0619.3,33.0
2016-12-28T01:21:00Z,0000380,01000600,0000.34,0000.56,0000.32,0000.29,0000.29,0000.02,-000.19,-000.20,0000.21,12.2,01.0,0619.2,33.0
2016-12-28T01:22:00Z,0000380,01000600,0000.45,0000.19,0000.64,-000.27,-000.01,0000.14,0000.13,0000.06,-000.17,12.2,01.0,0619.2,33.0
2016-12-28T01:23:00Z,0000380,01000600,0000.03,0000.57,0000.23,-000.11,-000.13,0000.09,-000.06,-000.05,-000.16,12.3,01.0,0619.4,33.0
2016-12-28T01:24:00Z,0000380,01000600,0000.83,0000.90,0000.59,0000.20,0000.67,-000.09,-000.19,-000.03,-000.04,12.3,00.9,0619.4,33.1
2016-12-28T01:25:00Z,0000380,01000600,-000.04,0000.37,0000.44,-000.43,0000.02,0000.12,0000.00,-000.04,0000.32,12.3,00.9,0619.4,33.1
2016-12-28T01:26:00Z,0000380,01000600,0000.85,0000.97,-000.00,-000.25,0000.29,-000.10,-000.00,0000.04,-000.27,12.3,00.9,0619.5,33.1
2016-12-28T01:27:00Z,0000380,01000600,0000.42,0000.59,0000.47,0000.14,0000.30,0000.05,0000.01,0000.01,0000.08,12.3,00.9,0619.4,33.1
2016-12-28T01:28:00Z,0000380,01000600,-000.38,0000.29,0000.51,0000.59,0000.59,-000.11,-000.23,-000.12,-000.00,12.4,00.9,0619.2,33.2
2016-12-28T01:29:00Z,0000380,01000600,0000.42,0000.14,0000.35,-000.43,0000.36,0000.11,-000.03,-000.16,-000.28,12.4,00.9,0619.4,33.2
2016-12-28T01:30:00Z,0000380,01000600,0000.62,0000.13,0000.27,-000.28,-000.22,0000.05,-000.06,0000.04,0000.11,12.4,00.9,0619.4,33.2
2016-12-28T01:31:00Z,0000380,01000600,0000.99,0000.46,0000.39,0000.50,-000.36,0000.24,-000.18,0000.12,-000.04,12.4,00.9,0619.5,33.3
2016-12-28T01:32:00Z,0000380,01000600,0000.05,0000.16,0000.14,0000.16,-000.06,-000.14,0000.18,-000.17,0000.01,12.4,00.8,0619.4,33.3
2016-12-28T01:33:00Z,0000380,01000600,-000.20,0000.74,0000.34,-000.65,-000.16,0000.19,0000.00,0000.08,0000.13,12.5,00.8,0619.4,33.3
2016-12-28T01:34:00Z,0000380,01000600,0001.20,0000.51,0000.63,-000.45,-000.08,0000.23,0000.05,-000.27,-000.30,12.5,00.9,0619.5,33.3
2016-12-28T01:35:00Z,0000380,01000600,0000.25,0000.24,-000.02,0000.02,0000.24,0000.40,-000.25,0000.26,0000.27,12.5,00.8,0619.5,33.3
2016-12-28T01:36:00Z,0000380,01000600,0000.68,0000.81,0000.27,-000.21,-000.23,-000.19,0000.14,-000.04,0000.09,12.5,00.9,0619.6,33.3
2016-12-28T01:37:00Z,0000380,01000600,0000.63,0000.71,0000.42,-000.43,-000.16,-000.02,-000.01,-000.01,-000.25,12.5,00.9,0619.6,33.3
2016-12-28T01:38:00Z,0000380,01000600,0000.56,-000.19,0000.46,-000.51,0000.30,-000.07,-000.02,0000.03,-000.00,12.5,00.8,0619.5,33.3
2016-12-28T01:39:00Z,0000380,01000600,0001.12,0000.04,0000.85,0000.48,0000.09,0000.38,-000.08,0000.02,-000.05,12.6,00.9,0619.5,33.3
2016-12-28T01:40:00Z,0000380,01000600,-000.63,0000.35,0000.48,-000.02,-000.44,0000.17,0000.08,0000.04,0000.27,12.6,00.8,0619.4,33.3
2016-12-28T01:41:00Z,0000380,01000600,0001.12,-000.06,0000.47,0000.08,-000.17,0000.21,0000.01,-000.09,-000.11,12.6,00.8,0619.5,33.3
2016-12-28T01:42:00Z,0000380,01000600,0000.60,0000.38,0000.23,-000.28,-000.07,-000.06,-000.00,-000.08,-000.27,12.6,00.8,0619.5,33.3
2016-12-28T01:43:00Z,0000380,01000600,0001.24,0000.12,0000.84,-000.33,0000.05,0000.16,-000.02,0000.16,0000.27,12.7,00.8,0619.6,33.3
2016-12-28T01:44:00Z,0000380,01000600,0000.54,0000.81,0000.41,-000.06,0000.01,0000.04,-000.07,-000.09,0000.02,12.7,00.8,0619.5,33.3
2016-12-28T01:45:00Z,0000380,01000600,0000.06,-000.02,0000.35,0000.58,0000.20,0000.05,0000.22,0000.15,0000.03,12.7,00.8,0619.6,33.3
2016-12-28T01:46:00Z,0000380,01000600,0000.32,0000.31,0000.13,-000.43,0000.15,0000.42,-000.18,-000.05,-000.01,12.7,00.9,0619.6,33.3
2016-12-28T01:47:00Z,0000380,01000600,0000.47,0000.39,0000.45,-000.17,0000.20,0000.15,0000.05,0000.08,0000.12,12.7,00.8,0619.6,33.3
2016-12-28T01:48:00Z,0000380,01000600,0000.01,0000.73,0000.64,0000.01,0000.20,-000.01,-000.06,-000.12,-000.12,12.8,00.8,0619.7,33.3
2016-12-28T01:49:00Z,0000380,01000600,0000.64,0000.35,0000.42,-000.11,0000.49,0000.43,0000.07,0000.08,0000.01,12.8,00.9,0619.7,33.3
2016-12-28T01:50:00Z,0000380,01000600,0000.08,0000.80,0000.17,-000.37,0000.12,-000.13,0000.11,0000.03,0000.34,12.8,00.8,0619.7,33.3
2016-12-28T01:51:00Z,0000380,01000600,0000.55,0000.56,0000.07,-000.26,0000.23,-000.19,-000.09,-000.12,-000.57,12.9,00.8,0619.7,33.3
2016-12-28T01:52:00Z,0000380,01000600,0000.76,0000.20,0000.42,-000.01,0000.31,-000.10,-000.01,0000.06,0000.52,12.9,00.8,0619.8,33.4
2016-12-28T01:53:00Z,0000380,01000600,0000.90,0000.22,0000.43,-000.25,0000.13,0000.19,0000.03,0000.15,-000.13,12.9,00.8,0619.7,33.4
2016-12-28T01:54:00Z,0000380,01000600,-000.42,0000.59,0000.65,0000.36,0000.21,0000.23,0000.01,-000.21,-000.10,13.0,00.7,0619.7,33.4
2016-12-28T01:55:00Z,0000380,01000600,0001.14,0000.59,0000.42,0000.61,0000.44,0000.08,-000.03,0000.10,-000.07,13.0,00.8,0619.7,33.4
2016-12-28T01:56:00Z,0000380,01000600,-000.48,0000.54,0000.17,0000.71,-000.11,0000.18,-000.04,-000.03,-000.06,13.0,00.8,0619.7,33.4
2016-12-28T01:57:00Z,0000380,41000600,,,,,,,,,,13.1,01.0,0619.4,33.4
2016-12-28T01:58:00Z,0000380,61000600,,,,,,,,,,13.0,00.8,0618.8,33.4
2016-12-28T01:59:00Z,0000380,21000600,,,,,,,,,,13.0,00.7,0618.7,33.4
2016-12-28T02:00:00Z,0000380,21000600,,,,,,,,,,13.0,00.8,0618.6,33.4
2016-12-28T02:01:00Z,0000380,21000600,,,,,,,,,,13.0,00.8,0618.6,33.4
2016-12-28T02:02:00Z,0000380,21000600,,,,,,,,,,13.0,00.8,0618.6,33.4
2016-12-28T02:03:00Z,0000380,61000600,,,,,,,,,,13.0,00.8,0618.6,33.4
2016-12-28T02:04:00Z,0000380,41000600,-000.58,0000.24,-000.00,-000.55,0000.05,0000.21,-000.04,-000.03,0000.19,13.2,00.7,0619.5,33.4
2016-12-28T02:05:00Z,0000380,01000600,-000.25,0000.56,0000.38,-000.06,0000.01,0000.18,0000.04,-000.14,-000.20,13.3,00.7,0619.7,33.4
2016-12-28T02:06:00Z,0000380,01000600,-000.02,0000.07,0000.11,-000.23,0000.06,-000.09,0000.29,-000.03,0000.12,13.3,00.8,0619.7,33.4
2016-12-28T02:07:00Z,0000380,01000600,-000.59,-000.06,0000.16,0000.01,-000.15,-000.15,-000.08,0000.17,-000.13,13.3,00.7,0619.8,33.4
2016-12-28T02:08:00Z,0000380,01000600,-000.55,-000.39,0000.43,0000.45,0000.34,-000.07,-000.05,0000.07,0000.20,13.4,00.7,0619.7,33.4
2016-12-28T02:09:00Z,0000380,01000600,-001.21,0000.34,0000.09,-000.70,0000.47,0000.13,0000.24,-000.07,0000.20,13.4,00.7,0619.7,33.4
2016-12-28T02:10:00Z,0000380,01000600,-000.86,0000.06,0000.60,-000.59,-000.05,0000.16,-000.13,-000.00,-000.22,13.4,00.7,0619.7,33.4
2016-12-28T02:11:00Z,0000380,01000600,-000.28,-000.10,0000.34,-000.41,-000.40,-000.13,0000.09,0000.24,-000.11,13.4,00.8,0619.6,33.4
2016-12-28T02:12:00Z,0000380,01000600,-000.63,0000.01,0000.11,0000.45,0000.01,0000.04,0000.01,-000.21,0000.14,13.4,00.7,0619.7,33.4
2016-12-28T02:13:00Z,0000380,01000600,-000.62,0000.10,0000.43,0000.43,-000.59,0000.21,-000.08,-000.00,0000.01,13.5,00.7,0619.7,33.4
2016-12-28T02:14:00Z,0000380,01000600,-000.79,0000.86,0000.05,-000.31,-000.18,-000.03,0000.09,-000.07,0000.02,13.5,00.7,0619.7,33.4
2016-12-28T02:15:00Z,0000380,01000600,-000.89,-000.25,0000.10,-000.31,0000.01,0000.06,0000.03,0000.13,-000.09,13.5,00.7,0619.7,33.4
2016-12-28T02:16:00Z,0000380,01000600,0000.28,-000.16,0000.55,-000.53,0000.11,-000.30,-000.17,-000.10,0000.04,13.5,00.6,0619.7,33.4
2016-12-28T02:17:00Z,0000380,01000600,-001.97,-000.02,0000.03,0000.37,-000.11,0000.18,0000.06,0000.21,0000.09,13.6,00.7,0619.7,33.4
2016-12-28T02:18:00Z,0000380,01000600,-000.58,0000.57,-000.03,0000.36,0000.21,-000.27,-000.04,-000.15,-000.09,13.6,00.7,0619.6,33.4
2016-12-28T02:19:00Z,0000380,01000600,0000.12,0000.04,0000.31,0000.51,0000.40,0000.23,0000.32,0000.18,-000.04,13.6,00.7,0619.6,33.4
2016-12-28T02:20:00Z,0000380,01000600,-000.65,0000.25,0000.05,0000.63,-000.11,0000.04,-000.13,-000.02,0000.16,13.7,00.6,0619.6,33.4
2016-12-28T02:21:00Z,0000380,01000600,-000.31,-000.04,0000.29,0000.01,-000.12,-000.18,-000.04,0000.04,0000.16,13.7,00.7,0619.7,33.4
2016-12-28T02:22:00Z,0000380,01000600,-000.43,0000.51,0000.21,-000.09,0000.37,-000.05,0000.13,-000.01,-000.26,13.7,00.7,0619.6,33.4
2016-12-28T02:23:00Z,0000380,01000600,0001.66,-000.02,0000.09,-000.01,0000.35,0000.06,-000.03,-000.09,-000.03,13.7,00.7,0619.5,33.4
2016-12-28T02:24:00Z,0000380,01000600,-001.04,0000.04,0000.49,-000.02,0000.25,0000.07,0000.17,0000.01,-000.01,13.7,00.7,0619.7,33.4
2016-12-28T02:25:00Z,0000380,01000600,-000.15,-000.10,0000.32,-000.19,0000.16,0000.01,-000.33,0000.18,0000.16,13.8,00.7,0619.6,33.4
2016-12-28T02:26:00Z,0000380,01000600,0000.51,-000.34,0000.88,-000.25,-000.35,-000.03,0000.15,-000.03,0000.17,13.8,00.7,0619.6,33.4
2016-12-28T02:27:00Z,0000380,01000600,-000.69,0000.06,0000.08,0000.40,-000.01,0000.18,0000.17,0000.05,-000.17,13.8,00.7,0619.7,33.4
2016-12-28T02:28:00Z,0000380,01000600,-000.39,0000.70,0000.23,0000.52,-000.43,0000.06,-000.12,-000.12,0000.12,13.8,00.8,0619.8,33.4
2016-12-28T02:29:00Z,0000380,01000600,-000.53,0000.01,0000.26,0000.54,-000.40,-000.11,-000.01,0000.07,-000.26,13.8,00.7,0619.8,33.4
2016-12-28T02:30:00Z,0000380,01000600,-000.73,0000.39,0000.40,-000.40,0000.26,-000.05,0000.13,-000.02,0000.11,13.9,00.7,0619.7,33.4
2016-12-28T02:31:00Z,0000380,01000600,0000.17,0000.18,0000.38,0000.47,0000.16,-000.06,0000.09,0000.03,-000.04,13.9,00.6,0619.6,33.5
2016-12-28T02:32:00Z,0000380,01000600,-001.08,0000.22,0000.07,0000.17,-000.04,-000.08,-000.02,0000.02,-000.17,13.9,00.7,0619.6,33.5
2016-12-28T02:33:00Z,0000380,01000600,-001.15,0000.01,0000.16,-000.28,-000.41,0000.05,0000.03,0000.07,0000.34,13.9,00.7,0619.7,33.5
2016-12-28T02:34:00Z,0000380,01000600,-000.47,0000.13,0000.31,-000.18,-000.41,-000.41,0000.10,-000.07,-000.08,14.0,00.6,0619.5,33.5
2016-12-28T02:35:00Z,0000380,01000600,-000.81,0000.01,0000.64,0000.60,-000.19,0000.03,-000.18,0000.09,0000.20,14.0,00.6,0619.6,33.5
2016-12-28T02:36:00Z,0000380,01000600,0000.75,-000.28,0000.50,-000.06,-000.15,0000.27,0000.19,0000.13,-000.02,14.0,00.6,0619.6,33.4
2016-12-28T02:37:00Z,0000380,01000600,-000.06,0000.29,0000.55,0000.14,-000.05,0000.03,0000.08,-000.05,-000.00,14.0,00.7,0619.5,33.4
2016-12-28T02:38:00Z,0000380,01000600,-000.16,0000.10,0000.47,0000.39,-000.15,0000.02,0000.03,0000.02,0000.26,14.0,00.6,0619.6,33.4
2016-12-28T02:39:00Z,0000380,01000600,0000.07,0000.36,0000.41,0000.16,-000.27,0000.08,-000.15,0000.22,-000.38,14.1,00.6,0619.6,33.4
2016-12-28T02:40:00Z,0000380,01000600,-000.45,0000.05,-000.01,-000.11,-000.64,0000.20,0000.00,-000.32,-000.09,14.1,00.6,0619.6,33.5
2016-12-28T02:41:00Z,0000380,01000600,-000.09,0000.63,0000.45,-000.09,0000.06,0000.13,0000.08,0000.17,0000.28,14.1,00.6,0619.6,33.5
2016-12-28T02:42:00Z,0000380,01000600,-000.66,0000.27,0000.23,0000.28,-000.37,-000.15,0000.10,0000.07,-000.03,14.1,00.7,0619.7,33.4
2016-12-28T02:43:00Z,0000380,01000600,-001.00,0000.50,0000.27,0000.39,0000.23,0000.22,-000.05,-000.05,-000.05,14.2,00.6,0619.6,33.5
2016-12-28T02:44:00Z,0000380,01000600,-000.03,0000.01,0000.13,-000.80,0000.01,0000.44,0000.07,-000.23,0000.08,14.2,00.6,0619.6,33.4
2016-12-28T02:45:00Z,0000380,01000600,-000.02,0000.29,-000.01,-000.52,0000.27,-000.04,-000.05,0000.27,-000.13,14.2,00.6,0619.6,33.5
2016-12-28T02:46:00Z,0000380,01000600,-000.53,0000.04,0000.03,0000.09,-000.16,0000.03,0000.12,-000.08,0000.27,14.2,00.6,0619.5,33.5
2016-12-28T02:47:00Z,0000380,01000600,0000.01,0000.07,0000.37,-000.04,0000.34,0000.09,-000.00,0000.04,-000.01,14.2,00.6,0619.6,33.5
2016-12-28T02:48:00Z,0000380,01000600,0000.49,0000.25,-000.12,-000.41,0000.10,0000.04,-000.10,-000.04,-000.14,14.2,00.6,0619.6,33.4
2016-12-28T02:49:00Z,0000380,01000600,-001.84,-000.46,0000.46,0000.30,-000.11,-000.21,0000.07,0000.05,0000.19,14.2,00.6,0619.6,33.4
2016-12-28T02:50:00Z,0000380,01000600,-000.98,0000.46,0000.15,-000.35,0000.17,0000.01,0000.05,-000.04,-000.13,14.3,00.6,0619.6,33.5
2016-12-28T02:51:00Z,0000380,01000600,-000.33,0000.15,0000.20,0000.20,-000.20,-000.11,0000.19,0000.07,-000.06,14.3,00.6,0619.6,33.5
2016-12-28T02:52:00Z,0000380,01000600,-000.52,0000.61,0000.37,0000.13,-000.46,0000.05,-000.01,-000.00,0000.12,14.3,00.6,0619.8,33.5
2016-12-28T02:53:00Z,0000380,01000600,-000.35,0000.08,-000.02,0000.35,0000.10,0000.25,-000.25,-000.03,-000.13,14.3,00.6,0619.7,33.5
2016-12-28T02:54:00Z,0000380,01000600,-000.29,-000.17,0000.15,-000.59,-000.29,-000.04,-000.02,0000.11,0000.01,14.3,00.6,0619.6,33.5
2016-12-28T02:55:00Z,0000380,01000600,0000.03,0000.42,0000.30,-000.05,0000.31,-000.01,0000.16,0000.04,-000.00,14.4,00.5,0619.6,33.5
2016-12-28T02:56:00Z,0000380,01000600,-000.71,0000.39,0000.27,0000.34,0000.03,0000.05,0000.01,-000.12,0000.07,14.4,00.5,0619.5,33.5
2016-12-28T02:57:00Z,0000380,41000600,,,,,,,,,,14.4,00.4,0619.7,33.5
2016-12-28T02:58:00Z,0000380,61000600,,,,,,,,,,14.3,00.6,0618.3,33.5
2016-12-28T02:59:00Z,0000380,21000600,,,,,,,,,,14.3,00.6,0618.4,33.5
2016-12-28T03:00:00Z,0000380,21000600,,,,,,,,,,14.3,00.6,0618.4,33.5
2016-12-28T03:01:00Z,0000380,21000600,,,,,,,,,,14.3,00.6,0618.4,33.4
2016-12-28T03:02:00Z,0000380,21000600,,,,,,,,,,14.3,00.6,0618.5,33.4
2016-12-28T03:03:00Z,0000380,61000600,,,,,,,,,,14.3,00.6,0618.5,33.4
2016-12-28T03:04:00Z,0000380,41000600,0000.88,0000.34,0000.09,0000.36,-000.41,-000.01,0000.10,-000.10,-000.09,14.4,00.6,0619.6,33.5
2016-12-28T03:05:00Z,0000380,01000600,-000.18,0000.48,0000.67,0000.52,0000.08,0000.06,-000.03,-000.08,-000.02,14.4,00.6,0619.7,33.5
2016-12-28T03:06:00Z,0000380,01000600,0000.31,0000.45,0000.27,0000.02,0000.33,-000.18,0000.12,-000.18,0000.10,14.5,00.6,0619.5,33.5
2016-12-28T03:07:00Z,0000380,01000600,-000.11,-000.13,-000.07,0000.28,0000.13,0000.11,-000.13,0000.24,-000.13,14.5,00.6,0619.5,33.5
2016-12-28T03:08:00Z,0000380,01000600,-000.08,0000.09,0000.94,0000.21,0000.09,0000.55,-000.05,0000.00,0000.10,14.5,00.6,0619.6,33.5
2016-12-28T03:09:00Z,0000380,01000600,0000.16,0000.58,0000.30,0000.69,-000.03,-000.19,0000.08,-000.01,-000.10,14.5,00.6,0619.6,33.5
2016-12-28T03:10:00Z,0000380,01000600,0000.56,0000.26,0000.19,0000.10,0000.05,-000.17,-000.05,-000.03,0000.15,14.5,00.6,0619.5,33.5
2016-12-28T03:11:00Z,0000380,01000600,0000.30,0000.12,0000.14,0000.47,0000.20,0000.11,0000.13,0000.04,-000.22,14.5,00.6,0619.5,33.5